N56SF KPIE-KMLB

Flight info

Callsign N56SF
Flight time N/A
Altitude 21000
Route LAL YOJIX/N0266F170 T336 DEARY
Aircraft SF50/L-BDGRSWY/LB2U2

Departure

Time 2026-04-17 20:21
Airport St. Petersburg Clearwater International Airport (KPIE)

Arrival

Time N/A
Airport Melbourne Orlando International Airport (KMLB)
Time Latitude Longitude Altitude Speed Heading
2026-04-17 19:58 27.91547 -82.69192 14 ft 0 kts 73°
2026-04-17 20:11 27.91547 -82.69189 32 ft 1 kts 151°
2026-04-17 20:11 27.91545 -82.69189 32 ft 0 kts 200°
2026-04-17 20:13 27.91544 -82.69190 32 ft 0 kts 200°
2026-04-17 20:13 27.91526 -82.69197 14 ft 5 kts 200°
2026-04-17 20:14 27.91501 -82.69207 14 ft 3 kts 200°
2026-04-17 20:14 27.91473 -82.69202 14 ft 5 kts 154°
2026-04-17 20:14 27.91444 -82.69173 13 ft 6 kts 109°
2026-04-17 20:14 27.91441 -82.69119 12 ft 7 kts 71°
2026-04-17 20:15 27.91411 -82.69072 11 ft 10 kts 156°
2026-04-17 20:15 27.91351 -82.69060 12 ft 7 kts 173°
2026-04-17 20:15 27.91306 -82.69050 13 ft 7 kts 169°
2026-04-17 20:15 27.91254 -82.69041 12 ft 8 kts 171°
2026-04-17 20:16 27.91192 -82.69031 11 ft 10 kts 171°
2026-04-17 20:16 27.91121 -82.69018 10 ft 10 kts 171°
2026-04-17 20:16 27.91060 -82.69008 10 ft 7 kts 171°
2026-04-17 20:16 27.91008 -82.68999 11 ft 10 kts 171°
2026-04-17 20:17 27.90935 -82.68986 13 ft 10 kts 171°
2026-04-17 20:17 27.90877 -82.68978 15 ft 9 kts 173°
2026-04-17 20:17 27.90810 -82.68968 15 ft 10 kts 171°
2026-04-17 20:17 27.90736 -82.68955 15 ft 10 kts 170°
2026-04-17 20:18 27.90678 -82.68946 15 ft 7 kts 171°
2026-04-17 20:18 27.90624 -82.68936 15 ft 8 kts 171°
2026-04-17 20:18 27.90566 -82.68926 16 ft 10 kts 169°
2026-04-17 20:18 27.90501 -82.68911 16 ft 10 kts 171°
2026-04-17 20:19 27.90436 -82.68900 15 ft 10 kts 169°
2026-04-17 20:19 27.90352 -82.68886 15 ft 12 kts 171°
2026-04-17 20:19 27.90294 -82.68855 15 ft 7 kts 97°
2026-04-17 20:19 27.90300 -82.68796 15 ft 10 kts 82°
2026-04-17 20:20 27.90331 -82.68733 15 ft 9 kts 20°
2026-04-17 20:20 27.90379 -82.68735 15 ft 5 kts 351°
2026-04-17 20:20 27.90650 -82.68781 19 ft 77 kts 351°
2026-04-17 20:20 27.91317 -82.68891 329 ft 110 kts 351°
2026-04-17 20:21 27.92111 -82.69003 942 ft 113 kts 351°
2026-04-17 20:21 27.92948 -82.69159 1199 ft 134 kts 349°
2026-04-17 20:21 27.93947 -82.69358 1334 ft 161 kts 350°
2026-04-17 20:21 27.95115 -82.69593 1847 ft 171 kts 350°
2026-04-17 20:22 27.96289 -82.69830 2538 ft 172 kts 350°
2026-04-17 20:22 27.97498 -82.70077 2978 ft 189 kts 352°
2026-04-17 20:22 27.98893 -82.70117 2984 ft 215 kts 14°
2026-04-17 20:22 28.00127 -82.69107 3144 ft 227 kts 59°
2026-04-17 20:23 28.00455 -82.67480 4048 ft 201 kts 89°
2026-04-17 20:23 28.00380 -82.66006 5081 ft 176 kts 94°
2026-04-17 20:23 28.00321 -82.64643 5798 ft 174 kts 92°
2026-04-17 20:23 28.00291 -82.63262 6406 ft 176 kts 92°
2026-04-17 20:24 28.00256 -82.61874 6968 ft 178 kts 92°
2026-04-17 20:24 28.00224 -82.60467 7493 ft 181 kts 92°
2026-04-17 20:24 28.00187 -82.59035 8043 ft 183 kts 92°
2026-04-17 20:24 28.00151 -82.57583 8557 ft 187 kts 91°
2026-04-17 20:25 28.00111 -82.56093 8985 ft 196 kts 91°
2026-04-17 20:25 28.00069 -82.54442 9009 ft 223 kts 91°
2026-04-17 20:25 28.00021 -82.52608 9008 ft 242 kts 91°
2026-04-17 20:25 27.99971 -82.50657 9005 ft 254 kts 91°
2026-04-17 20:26 27.99918 -82.48636 8989 ft 260 kts 91°
2026-04-17 20:26 27.99868 -82.46573 8991 ft 263 kts 91°
2026-04-17 20:26 27.99811 -82.44494 8990 ft 265 kts 91°
2026-04-17 20:26 27.99757 -82.42404 8990 ft 266 kts 91°